Flag for Israel Weather past 2 weeks in Bnei Brak, Israel

Now
84 °F

Scattered clouds.


Feels Like: 90 °F
Forecast: 78 / 86 °F
Wind: 8 mph from Northwest

Location: Dov Airport

Current Time: Sep 4, 2015 at 11:02:33 AM

Latest Report: Sep 4, 2015 at 9:50 AM


Visibility: N/A

Pressure: 29.83 "Hg

Humidity: 66%

Dew point: 72 °F

Location of Bnei BrakLocation

Historic Weather in Bnei Brak — Graph

°F

Bnei Brak temperature yesterday

Maximum temperature yesterday: 88 °F (at 11:50 AM)
Minimum temperature yesterday: 79 °F (at 4:50 AM)
Average temperature yesterday: 84 °F

Past Weeks' High & Low Weather Summary

 TemperatureHumidityPressure
High90 °F (Aug 20, 2:50 PM)79% (Aug 21, 5:50 AM)29.89 "Hg (Aug 21, 5:50 AM)
Low77 °F (Aug 26, 4:50 AM)49% (Aug 25, 12:50 PM)29.71 "Hg (Aug 22, 4:50 PM)
Average85 °F66%29.80 "Hg
* Reported Aug 20 9:50 AM — Sep 4 9:50 AM, Bnei Brak, Weather by CustomWeather, © 2015

Note: Actual official high and low records may vary slightly from our data, if they occured in-between our weather recording intervals... More about our weather records

Advertising

Bnei Brak weather history for previous 24 hours

 ConditionsComfort  
Time TempWeatherWind HumidityBarometerVisibility
9:50 AM
Fri, Sep 4
84 °FScattered clouds.8 mph66%29.83 "HgN/A
8:50 AM84 °FScattered clouds.5 mph62%29.83 "HgN/A
7:50 AM84 °FScattered clouds.2 mph62%29.83 "HgN/A
6:50 AM82 °FPassing clouds.5 mph66%29.83 "HgN/A
5:50 AM82 °FPassing clouds.2 mph62%29.80 "HgN/A
10:50 PM
Thu, Sep 3
82 °FPassing clouds.7 mph74%29.83 "HgN/A
9:50 PM84 °FPassing clouds.9 mph74%29.80 "HgN/A
8:50 PM84 °FPassing clouds.9 mph74%29.80 "HgN/A
7:50 PM84 °FScattered clouds.12 mph74%29.80 "HgN/A
6:50 PM84 °FScattered clouds.12 mph74%29.80 "HgN/A
5:50 PM86 °FScattered clouds.12 mph70%29.80 "HgN/A
4:50 PM88 °FPassing clouds.10 mph66%29.80 "HgN/A
3:50 PM88 °FPassing clouds.10 mph66%29.80 "HgN/A
2:50 PM88 °FPassing clouds.12 mph62%29.80 "HgN/A
1:50 PM88 °FPassing clouds.9 mph62%29.83 "HgN/A
12:50 PM88 °FPassing clouds.8 mph62%29.83 "HgN/A
11:50 AM88 °FPassing clouds.9 mph62%29.83 "HgN/A
Weather by CustomWeather, © 2015

See weather overviewHow to use our weather pages